Flag for Vietnam Weather past 2 weeks in Da Nang, Vietnam

Now
77 °F

Thunderstorms. Partly cloudy.


Feels Like: 78 °F
Forecast: 78 / 89 °F
Wind: 7 mph from Southwest

Location: Da Nang Airport

Current Time: Sep 1, 2014 at 8:47:57 PM

Latest Report: Sep 1, 2014 at 8:30 PM


Visibility: 4 mi

Pressure: 29.77 "Hg

Humidity: 94%

Dew point: 75 °F

Location of Da NangLocation

Historic Weather in Da Nang — Graph

°F

Da Nang temperature yesterday

Maximum temperature yesterday: 86 °F (at 9:00 AM)
Minimum temperature yesterday: 75 °F (at 3:00 AM)
Average temperature yesterday: 80 °F

Past Weeks' High & Low Weather Summary

 TemperatureHumidityPressure
High99 °F (Aug 18, 12:00 PM)100% (Sep 1, 1:30 AM)29.89 "Hg (Sep 1, 1:30 AM)
Low73 °F (Aug 21, 6:30 PM)39% (Aug 19, 10:30 AM)29.68 "Hg (Aug 19, 3:30 PM)
Average83 °F77%29.78 "Hg
* Reported Aug 17 7:00 PM — Sep 1 7:30 PM, Da Nang, Weather by CustomWeather, © 2014

Note: Actual official high and low records may vary slightly from our data, if they occured in-between our weather recording intervals... More about our weather records

Advertising

Da Nang weather history for previous 24 hours

 ConditionsComfort  
Time TempWeatherWind HumidityBarometerVisibility
7:30 PM
Sep 1
84 °FThunderstorms. Passing clouds.7 mph84%29.74 "Hg4 mi
7:00 PM84 °FPassing clouds.6 mph79%29.74 "HgN/A
6:30 PM84 °FPassing clouds.7 mph79%29.71 "HgN/A
6:00 PM84 °FPassing clouds.7 mph79%29.71 "HgN/A
5:30 PM84 °FPartly sunny.9 mph79%29.71 "HgN/A
5:00 PM84 °FPartly sunny.9 mph79%29.68 "HgN/A
4:30 PM84 °FPartly sunny.8 mph79%29.68 "HgN/A
4:00 PM84 °FPartly sunny.10 mph79%29.68 "HgN/A
3:30 PM86 °FPartly sunny.10 mph75%29.68 "HgN/A
3:00 PM86 °FPartly sunny.9 mph75%29.68 "HgN/A
2:30 PM86 °FPartly sunny.8 mph70%29.68 "HgN/A
2:00 PM88 °FPartly sunny.7 mph70%29.68 "HgN/A
1:30 PM88 °FPartly sunny.6 mph66%29.68 "HgN/A
1:00 PM88 °FPartly sunny.7 mph66%29.71 "HgN/A
12:30 PM86 °FPartly sunny.5 mph70%29.71 "HgN/A
12:00 PM84 °FPartly sunny.7 mph74%29.74 "HgN/A
11:30 AM84 °FPartly sunny.5 mph70%29.74 "HgN/A
11:00 AM84 °FPartly sunny.6 mph74%29.77 "HgN/A
10:30 AM86 °FPartly sunny.3 mph75%29.77 "HgN/A
10:00 AM81 °FPartly sunny.8 mph79%29.77 "HgN/A
9:30 AM84 °FPartly sunny.2 mph74%29.77 "Hg5 mi
9:00 AM81 °FPartly sunny.2 mph84%29.77 "Hg4 mi
8:30 AM81 °FFog.5 mph84%29.77 "Hg4 mi
8:00 AM79 °FFog.2 mph89%29.74 "Hg3 mi
7:30 AM77 °FFog.1 mph94%29.74 "Hg3 mi
6:30 AM75 °FFog.1 mph100%29.71 "Hg2 mi
6:00 AM75 °FFog.3 mph100%29.71 "Hg2 mi
5:30 AM75 °FPassing clouds.2 mph94%29.71 "Hg4 mi
5:00 AM75 °FPassing clouds.1 mph100%29.71 "Hg4 mi
4:00 AM75 °FLight rain. Partly cloudy.2 mph94%29.71 "Hg4 mi
3:30 AM75 °FLight rain. Partly cloudy.3 mph94%29.71 "Hg4 mi
3:00 AM75 °FLight rain. Partly cloudy.5 mph94%29.71 "Hg4 mi
2:30 AM75 °FLight rain. Partly cloudy.1 mph100%29.71 "Hg4 mi
2:00 AM75 °FLight rain. Partly cloudy.1 mph94%29.71 "Hg4 mi
1:30 AM75 °FPartly cloudy.No wind100%29.74 "Hg4 mi
1:00 AM75 °FPartly cloudy.2 mph94%29.74 "Hg4 mi
12:30 AM75 °FPartly cloudy.3 mph94%29.74 "Hg4 mi
12:00 AM75 °FLight rain. Partly cloudy.3 mph94%29.77 "Hg3 mi
11:30 PM
Aug 31
75 °FLight rain. Partly cloudy.1 mph94%29.77 "Hg3 mi
11:00 PM75 °FLight rain. Partly cloudy.1 mph94%29.77 "Hg3 mi
10:30 PM75 °FLight rain. Partly cloudy.8 mph94%29.80 "Hg4 mi
10:00 PM77 °FPassing clouds.3 mph89%29.77 "Hg5 mi
9:30 PM77 °FPartly cloudy.1 mph94%29.77 "Hg5 mi
9:00 PM77 °FPartly cloudy.2 mph94%29.77 "Hg5 mi
8:30 PM77 °FPartly cloudy.1 mph94%29.74 "Hg5 mi
8:00 PM77 °FPartly cloudy.No wind94%29.74 "Hg5 mi
Weather by CustomWeather, © 2014

See weather overviewHow to use our weather pages